Weather History for Saginaw, MI

Change the Weather History Date:

Sunday, March 31, 2013

  Actual Average Record
Temperature  
Mean Temperature 45 °F 40 °F  
Max Temperature 55 °F 49 °F 73 °F (1999)
Min Temperature 35 °F 31 °F 24 °F (1997)
Degree Days  
Heating Degree Days 20    
Month to date heating degree days  
Since 1 July heating degree days  
Cooling Degree Days 0    
Month to date cooling degree days  
Year to date cooling degree days  
Moisture  
Dew Point 34 °F    
Average Humidity 68    
Maximum Humidity 82    
Minimum Humidity 49    
Precipitation  
Precipitation 0.01 in 0.08 in 1.58 in (2008)
Month to date precipitation 2.06  
Year to date precipitation 5.38  
Snow  
Snow 0.00 in - - ()
Month to date snowfall  
Since 1 July snowfall  
Snow Depth -    
Sea Level Pressure  
Sea Level Pressure 29.69 in    
Wind  
Wind Speed 13 mph (WSW)    
Max Wind Speed 24 mph    
Max Gust Speed 30 mph    
Visibility 8 miles    
Events Rain , Snow    
T = Trace of Precipitation, MM = Missing Value Source: NWS Daily Summary

Daily Weather History Graph

Daily Weather History Graph

Search for Another Location

Airport:

Trip Planner

Search our weather history database for the weather conditions in past years. The results will help you decide how hot, cold, wet, or windy it might be!

Date:

Astronomy

Mar. 31, 2013 Rise Set
Actual Time 7:19 AM EDT 8:02 PM EDT
Civil Twilight 6:50 AM EDT 8:31 PM EDT
Nautical Twilight 6:16 AM EDT 9:05 PM EDT
Astronomical Twilight 5:40 AM EDT 9:41 PM EDT
Moon 12:14 AM EDT 9:58 AM EDT
Length of Visible Light 13h 40m
Length of Day
12h 42m
Waning Gibbous, 78% of the Moon is Illuminated
Mar 31
Waning Gibbous
Apr 3
Last Quarter
Apr 10
New
Apr 18
First Quarter
Apr 25
Full

Hourly Weather History & Observations

Time (EDT) Temp. Windchill Dew Point Humidity Pressure Visibility Wind Dir Wind Speed Gust Speed Precip Events Conditions
12:53 AM 45.0 °F 38.2 °F 28.0 °F 52% 29.87 in 10.0 mi SSE 15.0 mph 26.5 mph N/A   Mostly Cloudy
1:53 AM 45.0 °F 40.6 °F 28.9 °F 53% 29.84 in 10.0 mi South 8.1 mph - N/A   Overcast
2:53 AM 44.1 °F 40.8 °F 30.0 °F 58% 29.81 in 10.0 mi SSW 5.8 mph - N/A   Overcast
3:53 AM 44.1 °F 40.8 °F 30.9 °F 60% 29.79 in 10.0 mi SW 5.8 mph - N/A   Overcast
5:53 AM 43.0 °F 38.2 °F 34.0 °F 71% 29.72 in 10.0 mi South 8.1 mph - 0.00 in   Overcast
6:53 AM 43.0 °F 37.2 °F 34.0 °F 71% 29.72 in 8.0 mi SSW 10.4 mph - 0.00 in Rain Light Rain
7:53 AM 42.1 °F 37.1 °F 36.0 °F 79% 29.71 in 8.0 mi SSW 8.1 mph - 0.00 in   Overcast
8:21 AM 42.8 °F 38.6 °F 35.6 °F 76% 29.69 in 4.0 mi SSW 6.9 mph - N/A   Haze
8:53 AM 43.0 °F 38.8 °F 36.0 °F 76% 29.69 in 6.0 mi SSW 6.9 mph - N/A   Haze
9:02 AM 42.8 °F 37.5 °F 35.6 °F 76% 29.68 in 6.0 mi SSW 9.2 mph - N/A   Haze
9:53 AM 44.1 °F 38.1 °F 37.9 °F 79% 29.68 in 5.0 mi SW 11.5 mph - N/A   Haze
10:53 AM 45.0 °F 39.3 °F 39.9 °F 82% 29.67 in 6.0 mi WSW 11.5 mph 18.4 mph N/A   Haze
11:17 AM 44.6 °F 38.8 °F 39.2 °F 81% 29.66 in 6.0 mi WSW 11.5 mph 18.4 mph N/A   Haze
11:53 AM 46.0 °F 40.2 °F 39.0 °F 76% 29.67 in 10.0 mi WSW 12.7 mph - 0.01 in   Overcast
12:40 PM 50.0 °F - 37.4 °F 62% 29.65 in 10.0 mi WSW 15.0 mph - N/A   Scattered Clouds
12:51 PM 50.0 °F - 37.4 °F 62% 29.65 in 10.0 mi SW 18.4 mph 27.6 mph N/A   Mostly Cloudy
12:53 PM 50.0 °F - 37.0 °F 61% 29.66 in 10.0 mi WSW 18.4 mph 27.6 mph N/A   Mostly Cloudy
1:01 PM 50.0 °F - 35.6 °F 58% 29.64 in 10.0 mi WSW 15.0 mph - N/A   Scattered Clouds
1:53 PM 52.0 °F - 37.0 °F 57% 29.63 in 10.0 mi WSW 15.0 mph - N/A   Clear
2:53 PM 55.0 °F - 36.0 °F 49% 29.62 in 10.0 mi West 15.0 mph 26.5 mph N/A   Partly Cloudy
3:53 PM 54.0 °F - 36.0 °F 51% 29.62 in 10.0 mi West 23.0 mph 29.9 mph N/A   Partly Cloudy
4:53 PM 50.0 °F - 37.0 °F 61% 29.62 in 10.0 mi WSW 24.2 mph 29.9 mph N/A   Mostly Cloudy
5:23 PM 46.4 °F 38.5 °F 35.6 °F 66% 29.62 in 10.0 mi WSW 21.9 mph 27.6 mph N/A   Overcast
5:53 PM 46.0 °F 38.8 °F 35.1 °F 66% 29.64 in 10.0 mi West 18.4 mph 26.5 mph N/A   Overcast
6:53 PM 43.0 °F 34.8 °F 35.1 °F 74% 29.65 in 7.0 mi West 18.4 mph 25.3 mph N/A   Overcast
7:23 PM 42.8 °F 34.8 °F 35.6 °F 76% 29.64 in 7.0 mi WSW 17.3 mph - N/A   Scattered Clouds
7:53 PM 42.1 °F 35.7 °F 34.0 °F 73% 29.65 in 7.0 mi West 11.5 mph - N/A   Clear
8:53 PM 41.0 °F 34.7 °F 33.1 °F 73% 29.66 in 9.0 mi WSW 10.4 mph - N/A   Clear
9:53 PM 41.0 °F 34.7 °F 32.0 °F 70% 29.67 in 10.0 mi West 10.4 mph - N/A   Overcast
10:53 PM 39.0 °F 29.3 °F 30.9 °F 73% 29.70 in 10.0 mi NNW 19.6 mph 24.2 mph 0.00 in Rain Light Rain
11:00 PM 37.4 °F 26.1 °F 30.2 °F 75% 29.68 in 9.0 mi NNW 24.2 mph 29.9 mph 0.00 in Rain Light Rain
11:16 PM 35.6 °F 24.5 °F 30.2 °F 81% 29.70 in 4.0 mi NW 20.7 mph - 0.00 in Snow Light Snow
11:37 PM 35.6 °F 26.6 °F 28.4 °F 75% 29.70 in 7.0 mi NW 13.8 mph 23.0 mph 0.00 in Snow Light Snow
11:53 PM 35.1 °F 25.9 °F 28.0 °F 76% 29.72 in 9.0 mi NW 13.8 mph - 0.00 in Snow Light Snow